AKDT,Max TemperatureF,Mean TemperatureF,Min TemperatureF,Max Dew PointF,MeanDew PointF,Min DewpointF,Max Humidity, Mean Humidity, Min Humidity, Max Sea Level PressureIn, Mean Sea Level PressureIn, Min Sea Level PressureIn, Max VisibilityMiles, Mean VisibilityMiles, Min VisibilityMiles, Max Wind SpeedMPH, Mean Wind SpeedMPH, Max Gust SpeedMPH,PrecipitationIn, CloudCover, Events, WindDirDegrees
2012-8-1,60,54,48,49,47,46,100,83,60,30.09,30.05,29.98,10,10,10,16,4,23,0.00,8,,232
2012-8-2,60,56,55,50,49,46,80,73,67,30.10,30.06,30.03,10,10,10,28,21,36,0.00,7,,203
2012-8-3,57,54,51,52,49,48,96,85,74,30.14,30.07,30.03,10,10,5,23,14,32,0.24,8,Rain,222
2012-8-4,62,54,48,50,48,46,100,87,60,30.19,30.13,30.00,10,9,1,18,2,18,0.00,5,,233
2012-8-5,59,54,50,52,50,48,100,90,75,30.01,29.98,29.94,10,8,1,15,1,,0.08,8,Rain,235
2012-8-6,55,52,50,54,52,49,100,98,87,30.09,30.04,30.01,10,3,0,7,0,,0.30,8,Fog-Rain,228
2012-8-7,64,56,51,57,53,51,100,97,86,30.06,29.99,29.92,10,4,0,10,1,,0.15,8,Fog-Rain,230
2012-8-8,57,54,50,56,53,48,100,98,94,29.93,29.89,29.85,10,2,0,10,1,18,0.19,8,Fog-Rain,230
2012-8-9,57,55,53,52,47,45,94,74,65,30.13,30.06,29.91,10,10,10,23,20,32,0.01,7,Rain,203
2012-8-10,59,54,51,48,47,45,86,79,67,30.19,30.17,30.14,10,10,10,18,13,28,0.02,8,Rain,214
2012-8-11,60,51,45,49,46,43,97,83,60,30.18,30.14,30.11,10,10,10,16,2,24,0.00,4,,229
2012-8-12,60,54,48,52,49,47,96,87,72,30.14,30.08,30.05,10,10,10,16,3,,0.00,8,Rain,220
2012-8-13,66,56,48,54,51,48,100,90,58,30.07,30.02,29.94,10,6,0,6,1,,0.00,5,Fog-Rain,229
2012-8-14,68,58,51,51,49,48,92,75,54,30.19,30.15,30.10,10,10,10,20,4,18,0.00,0,,286
2012-8-15,70,59,48,51,49,47,93,77,49,30.20,30.14,30.07,10,10,10,18,4,28,0.00,1,,224
2012-8-16,64,58,52,52,50,49,89,77,60,30.12,30.09,30.05,10,10,10,16,3,23,0.00,8,,213
2012-8-17,61,54,50,54,51,47,100,91,64,30.04,29.90,29.85,10,6,1,6,1,,0.22,8,Rain,234
2012-8-18,61,55,51,54,51,49,100,86,72,30.01,29.92,29.84,10,9,1,21,5,29,0.04,4,Rain,216
2012-8-19,60,54,48,52,49,46,96,84,72,30.03,30.00,29.97,10,10,10,18,3,20,0.00,2,,235
2012-8-20,64,56,48,51,49,46,96,79,58,30.02,29.98,29.94,10,10,10,17,4,23,0.00,1,,225
2012-8-21,62,54,50,52,49,48,96,82,72,29.98,29.94,29.89,10,10,10,23,4,25,0.00,3,Rain,223
2012-8-22,55,52,50,52,51,48,100,95,86,29.93,29.92,29.91,10,4,0,12,1,18,0.20,8,Fog-Rain,214
2012-8-23,59,55,51,52,49,48,94,82,69,29.96,29.92,29.90,10,10,10,18,7,29,0.00,8,Rain,198
2012-8-24,57,54,50,51,48,45,97,81,62,30.05,30.02,29.96,10,9,3,17,6,20,0.00,8,Rain,222
2012-8-25,55,53,51,50,48,47,92,82,74,30.03,30.00,29.98,10,10,10,22,9,17,0.03,8,Rain,209
2012-8-26,64,56,48,50,47,45,93,78,52,30.00,29.91,29.80,10,10,10,15,3,,0.00,2,,270
2012-8-27,61,53,46,50,47,44,93,77,60,29.84,29.77,29.67,10,10,10,25,10,36,0.00,5,,201
2012-8-28,55,52,48,52,48,39,96,85,59,29.94,29.79,29.67,10,7,1,23,14,32,0.45,8,Rain,224
2012-8-29,70,58,46,45,40,35,86,55,31,30.05,30.00,29.95,10,10,10,18,5,25,0.00,3,,22
2012-8-30,62,51,42,45,42,40,93,76,49,30.06,30.01,29.96,10,10,10,17,4,20,0.00,0,,1
2012-8-31,62,52,43,45,43,40,93,75,47,30.03,29.98,29.93,10,10,10,21,4,25,0.00,0,,229